Powrót do katalogu

STARLINK-36650

AktywnyŁącznośćVLEO
NORAD 67836·PAYLOAD·🇺🇸 United States

Wystrzelony Feb 16, 2026 z Vandenberg Space Force Base

Loading…

Następne Przeloty (najbliższe 24 godziny)

TLE

ŚwieżeSource: CelesTrak SupGP

Epoka: Sep 15, 2026, 04:07 UTC

1 67836C 26033R   26258.17201389 -.00023036  00000+0 -83411-3 0  2581
2 67836  43.0021 277.1443 0001498 268.8348 348.9169 15.27598878    12

Śledź STARLINK-36650 w czasie rzeczywistym z AllMySat

Download on the App Store